AAL1442 KOKC-KDFW

Flight info

Callsign AAL1442
Flight time 0h 44m
Altitude 27000
Route MUDDE3 MUDDE RBUKL JOVEM6
Aircraft B738/M-SDE2E3FGHIRWXY/LB1

Departure

Time 2026-05-06 15:04
Airport OKC Will Rogers World Airport (KOKC)

Arrival

Time 2026-05-06 15:49
Airport Dallas Fort Worth International Airport (KDFW)
Time Latitude Longitude Altitude Speed Heading
2026-05-06 14:17 35.39472 -97.59802 1295 ft 0 kts
2026-05-06 14:51 35.39471 -97.59802 1295 ft 0 kts
2026-05-06 14:53 35.39459 -97.59804 1295 ft 2 kts
2026-05-06 14:53 35.39444 -97.59804 1295 ft 2 kts 356°
2026-05-06 14:53 35.39434 -97.59804 1295 ft 1 kts
2026-05-06 14:54 35.39421 -97.59798 1295 ft 2 kts 312°
2026-05-06 14:54 35.39415 -97.59784 1295 ft 0 kts 274°
2026-05-06 14:54 35.39415 -97.59777 1295 ft 1 kts 266°
2026-05-06 14:54 35.39415 -97.59774 1295 ft 0 kts 269°
2026-05-06 14:56 35.39412 -97.59785 1294 ft 4 kts 245°
2026-05-06 14:57 35.39379 -97.59821 1294 ft 6 kts 198°
2026-05-06 14:57 35.39330 -97.59823 1294 ft 7 kts 178°
2026-05-06 14:57 35.39270 -97.59828 1293 ft 9 kts 187°
2026-05-06 14:57 35.39216 -97.59787 1292 ft 8 kts 102°
2026-05-06 14:58 35.39219 -97.59731 1292 ft 6 kts 89°
2026-05-06 14:58 35.39219 -97.59682 1292 ft 5 kts 90°
2026-05-06 14:58 35.39218 -97.59624 1292 ft 10 kts 90°
2026-05-06 14:58 35.39218 -97.59550 1292 ft 7 kts 90°
2026-05-06 14:59 35.39218 -97.59486 1292 ft 7 kts 89°
2026-05-06 14:59 35.39220 -97.59427 1292 ft 6 kts 88°
2026-05-06 14:59 35.39222 -97.59371 1292 ft 6 kts 87°
2026-05-06 14:59 35.39223 -97.59319 1292 ft 5 kts 90°
2026-05-06 15:00 35.39223 -97.59271 1292 ft 5 kts 88°
2026-05-06 15:00 35.39225 -97.59230 1292 ft 4 kts 87°
2026-05-06 15:00 35.39226 -97.59193 1292 ft 3 kts 90°
2026-05-06 15:00 35.39215 -97.59106 1293 ft 20 kts 110°
2026-05-06 15:01 35.39090 -97.59060 1293 ft 20 kts 181°
2026-05-06 15:01 35.38951 -97.59063 1292 ft 20 kts 180°
2026-05-06 15:01 35.38807 -97.59062 1291 ft 20 kts 179°
2026-05-06 15:01 35.38663 -97.59059 1290 ft 20 kts 179°
2026-05-06 15:02 35.38523 -97.59062 1290 ft 20 kts 180°
2026-05-06 15:02 35.38378 -97.59062 1288 ft 20 kts 179°
2026-05-06 15:02 35.38229 -97.59059 1285 ft 22 kts 178°
2026-05-06 15:02 35.38071 -97.59056 1283 ft 23 kts 179°
2026-05-06 15:03 35.37912 -97.59058 1281 ft 16 kts 180°
2026-05-06 15:03 35.37835 -97.59009 1281 ft 12 kts 121°
2026-05-06 15:03 35.37838 -97.58917 1281 ft 11 kts 55°
2026-05-06 15:03 35.37883 -97.58894 1282 ft 0 kts 354°
2026-05-06 15:04 35.37917 -97.58896 1283 ft 25 kts 359°
2026-05-06 15:04 35.38396 -97.58893 1291 ft 108 kts 360°
2026-05-06 15:04 35.39397 -97.58915 1413 ft 166 kts
2026-05-06 15:04 35.40552 -97.58997 2173 ft 179 kts 360°
2026-05-06 15:05 35.41806 -97.59358 2984 ft 201 kts 335°
2026-05-06 15:05 35.42887 -97.60566 3669 ft 223 kts 314°
2026-05-06 15:05 35.43742 -97.62191 4401 ft 237 kts 300°
2026-05-06 15:05 35.44542 -97.64008 5153 ft 248 kts 303°
2026-05-06 15:06 35.45519 -97.65791 5867 ft 260 kts 302°
2026-05-06 15:06 35.46056 -97.67883 6700 ft 267 kts 270°
2026-05-06 15:06 35.45542 -97.70007 7849 ft 263 kts 237°
2026-05-06 15:06 35.44246 -97.71481 9026 ft 261 kts 214°
2026-05-06 15:07 35.42531 -97.72212 10063 ft 268 kts 194°
2026-05-06 15:07 35.40650 -97.72218 10796 ft 286 kts 179°
2026-05-06 15:07 35.38625 -97.71587 11369 ft 307 kts 169°
2026-05-06 15:07 35.36570 -97.70689 11864 ft 325 kts 167°
2026-05-06 15:08 35.34391 -97.69697 12346 ft 341 kts 167°
2026-05-06 15:08 35.32117 -97.68697 12818 ft 355 kts 168°
2026-05-06 15:08 35.29731 -97.67690 13259 ft 370 kts 168°
2026-05-06 15:08 35.27273 -97.66677 13762 ft 383 kts 168°
2026-05-06 15:09 35.24736 -97.65636 14583 ft 385 kts 169°
2026-05-06 15:09 35.22193 -97.64592 15458 ft 386 kts 169°
2026-05-06 15:09 35.19645 -97.63547 16229 ft 389 kts 170°
2026-05-06 15:09 35.17095 -97.62505 17049 ft 390 kts 171°
2026-05-06 15:10 35.14513 -97.61450 17886 ft 390 kts 171°
2026-05-06 15:10 35.11939 -97.60401 18588 ft 393 kts 171°
2026-05-06 15:10 35.09333 -97.59344 19192 ft 399 kts 172°
2026-05-06 15:10 35.06693 -97.58276 19866 ft 401 kts 172°
2026-05-06 15:11 35.04026 -97.57204 20386 ft 408 kts 173°
2026-05-06 15:11 35.01329 -97.56221 20978 ft 406 kts 176°
2026-05-06 15:11 34.98553 -97.55505 21608 ft 402 kts 181°
2026-05-06 15:11 34.95800 -97.55008 22180 ft 402 kts 184°
2026-05-06 15:12 34.93029 -97.54707 22667 ft 400 kts 188°
2026-05-06 15:12 34.90257 -97.54701 23312 ft 394 kts 192°
2026-05-06 15:12 34.87534 -97.54847 23853 ft 395 kts 194°
2026-05-06 15:12 34.84767 -97.55057 24260 ft 402 kts 195°
2026-05-06 15:13 34.81980 -97.55273 24928 ft 402 kts 194°
2026-05-06 15:13 34.79166 -97.55477 25323 ft 409 kts 194°
2026-05-06 15:13 34.76334 -97.55660 25982 ft 409 kts 194°
2026-05-06 15:13 34.73490 -97.55830 26464 ft 413 kts 194°
2026-05-06 15:14 34.70611 -97.55988 26969 ft 414 kts 193°
2026-05-06 15:14 34.67754 -97.56139 27059 ft 417 kts 193°
2026-05-06 15:14 34.64832 -97.56284 27058 ft 415 kts 193°
2026-05-06 15:14 34.61962 -97.56422 27062 ft 413 kts 193°
2026-05-06 15:15 34.59082 -97.56557 27058 ft 412 kts 193°
2026-05-06 15:15 34.56237 -97.56696 27055 ft 413 kts 193°
2026-05-06 15:15 34.53368 -97.56835 27054 ft 412 kts 193°
2026-05-06 15:15 34.50491 -97.56975 27059 ft 410 kts 193°
2026-05-06 15:16 34.47622 -97.57116 27057 ft 411 kts 193°
2026-05-06 15:16 34.44788 -97.57256 27052 ft 410 kts 193°
2026-05-06 15:16 34.41929 -97.57397 27055 ft 411 kts 193°
2026-05-06 15:16 34.39072 -97.57539 27056 ft 412 kts 193°
2026-05-06 15:17 34.36207 -97.57680 27054 ft 411 kts 193°
2026-05-06 15:17 34.33372 -97.57818 27056 ft 411 kts 193°
2026-05-06 15:17 34.30468 -97.57961 27054 ft 412 kts 193°
2026-05-06 15:17 34.27611 -97.58103 27056 ft 412 kts 193°
2026-05-06 15:18 34.24739 -97.58242 27053 ft 413 kts 193°
2026-05-06 15:18 34.21853 -97.58384 27052 ft 412 kts 193°
2026-05-06 15:18 34.19029 -97.58518 27054 ft 410 kts 193°
2026-05-06 15:18 34.16161 -97.58657 27048 ft 411 kts 193°
2026-05-06 15:19 34.13279 -97.58800 27049 ft 414 kts 193°
2026-05-06 15:19 34.10406 -97.58942 27051 ft 412 kts 193°
2026-05-06 15:19 34.07555 -97.59079 27051 ft 413 kts 193°
2026-05-06 15:19 34.04679 -97.59221 27048 ft 414 kts 193°
2026-05-06 15:20 34.01806 -97.59361 27046 ft 414 kts 193°
2026-05-06 15:20 33.98906 -97.59499 27045 ft 414 kts 193°
2026-05-06 15:20 33.96018 -97.59639 27046 ft 415 kts 193°
2026-05-06 15:20 33.93138 -97.59777 27046 ft 415 kts 193°
2026-05-06 15:21 33.90261 -97.59916 27045 ft 415 kts 193°
2026-05-06 15:21 33.87369 -97.60059 27043 ft 413 kts 193°
2026-05-06 15:21 33.84507 -97.60246 27044 ft 410 kts 194°
2026-05-06 15:21 33.81682 -97.60471 26788 ft 406 kts 194°
2026-05-06 15:22 33.78900 -97.60711 26295 ft 400 kts 194°
2026-05-06 15:22 33.76118 -97.60957 25647 ft 397 kts 195°
2026-05-06 15:22 33.73368 -97.61204 24866 ft 398 kts 195°
2026-05-06 15:22 33.70611 -97.61453 23985 ft 401 kts 194°
2026-05-06 15:23 33.67832 -97.61705 23029 ft 406 kts 194°
2026-05-06 15:23 33.65010 -97.61955 22334 ft 403 kts 194°
2026-05-06 15:23 33.62231 -97.62187 21718 ft 399 kts 193°
2026-05-06 15:23 33.59494 -97.62413 21067 ft 397 kts 193°
2026-05-06 15:24 33.56761 -97.62640 20428 ft 396 kts 193°
2026-05-06 15:24 33.53997 -97.62871 19787 ft 395 kts 193°
2026-05-06 15:24 33.51250 -97.63099 19146 ft 394 kts 193°
2026-05-06 15:24 33.48527 -97.63324 18575 ft 391 kts 192°
2026-05-06 15:25 33.45860 -97.63542 18202 ft 383 kts 193°
2026-05-06 15:25 33.43225 -97.63752 17976 ft 372 kts 192°
2026-05-06 15:25 33.40654 -97.63790 17834 ft 367 kts 186°
2026-05-06 15:25 33.38143 -97.63181 17490 ft 381 kts 168°
2026-05-06 15:26 33.35796 -97.61514 16983 ft 401 kts 150°
2026-05-06 15:26 33.33743 -97.59255 16451 ft 407 kts 144°
2026-05-06 15:26 33.31751 -97.56821 15891 ft 409 kts 142°
2026-05-06 15:26 33.29783 -97.54356 15292 ft 411 kts 141°
2026-05-06 15:27 33.27824 -97.51916 14979 ft 399 kts 141°
2026-05-06 15:27 33.25941 -97.49595 14852 ft 382 kts 142°
2026-05-06 15:27 33.24105 -97.47376 14431 ft 374 kts 142°
2026-05-06 15:27 33.22290 -97.45222 13932 ft 362 kts 142°
2026-05-06 15:28 33.20531 -97.43147 13496 ft 346 kts 142°
2026-05-06 15:28 33.18853 -97.41177 13047 ft 332 kts 142°
2026-05-06 15:28 33.17223 -97.39275 12672 ft 320 kts 143°
2026-05-06 15:28 33.15667 -97.37463 12291 ft 316 kts 142°
2026-05-06 15:29 33.14113 -97.35671 11956 ft 311 kts 142°
2026-05-06 15:29 33.12575 -97.33878 11948 ft 301 kts 143°
2026-05-06 15:29 33.11118 -97.32169 11950 ft 291 kts 143°
2026-05-06 15:29 33.09676 -97.30484 11957 ft 293 kts 143°
2026-05-06 15:30 33.08194 -97.28760 11956 ft 293 kts 143°
2026-05-06 15:30 33.06749 -97.27078 11949 ft 293 kts 143°
2026-05-06 15:30 33.05286 -97.25372 11949 ft 291 kts 142°
2026-05-06 15:30 33.03822 -97.23664 11950 ft 292 kts 143°
2026-05-06 15:31 33.02366 -97.21968 11955 ft 293 kts 143°
2026-05-06 15:31 33.00930 -97.20292 11947 ft 284 kts 143°
2026-05-06 15:31 32.99561 -97.18699 11949 ft 271 kts 145°
2026-05-06 15:32 32.96522 -97.16852 11788 ft 235 kts 183°
2026-05-06 15:32 32.94910 -97.16826 11555 ft 231 kts 187°
2026-05-06 15:32 32.93284 -97.16822 11315 ft 230 kts 185°
2026-05-06 15:32 32.91678 -97.16767 11088 ft 232 kts 184°
2026-05-06 15:33 32.90073 -97.16687 10844 ft 229 kts 184°
2026-05-06 15:33 32.88501 -97.16594 10631 ft 222 kts 183°
2026-05-06 15:33 32.86971 -97.16503 10378 ft 217 kts 184°
2026-05-06 15:33 32.85484 -97.16421 10132 ft 212 kts 184°
2026-05-06 15:34 32.84030 -97.16345 9877 ft 208 kts 183°
2026-05-06 15:34 32.82586 -97.16264 9636 ft 204 kts 184°
2026-05-06 15:34 32.81181 -97.16187 9382 ft 200 kts 183°
2026-05-06 15:34 32.79812 -97.16123 9132 ft 197 kts 184°
2026-05-06 15:35 32.78432 -97.16112 8877 ft 194 kts 186°
2026-05-06 15:35 32.77092 -97.16123 8627 ft 192 kts 186°
2026-05-06 15:35 32.75774 -97.16130 8378 ft 190 kts 185°
2026-05-06 15:35 32.74459 -97.16130 8125 ft 188 kts 185°
2026-05-06 15:36 32.73154 -97.16131 7873 ft 186 kts 185°
2026-05-06 15:36 32.71858 -97.16131 7621 ft 184 kts 184°
2026-05-06 15:36 32.70570 -97.16132 7371 ft 185 kts 184°
2026-05-06 15:36 32.69300 -97.16131 7121 ft 183 kts 184°
2026-05-06 15:37 32.68019 -97.16130 6866 ft 183 kts 184°
2026-05-06 15:37 32.66763 -97.16129 6616 ft 182 kts 184°
2026-05-06 15:37 32.65489 -97.16129 6358 ft 181 kts 183°
2026-05-06 15:37 32.64212 -97.16129 6109 ft 183 kts 182°
2026-05-06 15:38 32.62942 -97.16128 5858 ft 184 kts 183°
2026-05-06 15:38 32.61663 -97.16122 5611 ft 184 kts 182°
2026-05-06 15:38 32.60372 -97.16128 5357 ft 185 kts 181°
2026-05-06 15:38 32.59087 -97.16128 5099 ft 186 kts 180°
2026-05-06 15:39 32.57837 -97.15685 4842 ft 192 kts 142°
2026-05-06 15:39 32.57088 -97.14387 4610 ft 195 kts 106°
2026-05-06 15:39 32.56991 -97.12824 4365 ft 191 kts 82°
2026-05-06 15:39 32.57385 -97.11362 4106 ft 186 kts 54°
2026-05-06 15:40 32.58271 -97.10268 3924 ft 177 kts 39°
2026-05-06 15:40 32.59116 -97.09283 3928 ft 171 kts 55°
2026-05-06 15:40 32.59475 -97.07909 3942 ft 179 kts 86°
2026-05-06 15:40 32.59515 -97.06449 3927 ft 175 kts 73°
2026-05-06 15:41 32.60219 -97.05330 3937 ft 173 kts 24°
2026-05-06 15:41 32.61391 -97.05236 3943 ft 172 kts 346°
2026-05-06 15:41 32.62562 -97.05507 3934 ft 172 kts 354°
2026-05-06 15:41 32.63749 -97.05576 3936 ft 170 kts 359°
2026-05-06 15:42 32.64951 -97.05589 3937 ft 171 kts 359°
2026-05-06 15:42 32.66134 -97.05591 3940 ft 171 kts 360°
2026-05-06 15:42 32.67342 -97.05588 3940 ft 172 kts
2026-05-06 15:42 32.68543 -97.05582 3939 ft 172 kts
2026-05-06 15:43 32.69729 -97.05576 3937 ft 170 kts 360°
2026-05-06 15:43 32.70913 -97.05570 3928 ft 172 kts 360°
2026-05-06 15:43 32.72103 -97.05565 3744 ft 168 kts
2026-05-06 15:43 32.73246 -97.05559 3470 ft 159 kts
2026-05-06 15:44 32.74324 -97.05553 3278 ft 151 kts
2026-05-06 15:44 32.75388 -97.05548 3066 ft 152 kts
2026-05-06 15:44 32.76441 -97.05543 2859 ft 151 kts
2026-05-06 15:44 32.77489 -97.05537 2699 ft 143 kts
2026-05-06 15:45 32.78460 -97.05532 2484 ft 138 kts
2026-05-06 15:45 32.79404 -97.05527 2235 ft 129 kts
2026-05-06 15:45 32.80298 -97.05524 2111 ft 132 kts
2026-05-06 15:45 32.81222 -97.05516 1900 ft 133 kts
2026-05-06 15:46 32.82141 -97.05512 1734 ft 130 kts
2026-05-06 15:46 32.83056 -97.05511 1552 ft 133 kts 360°
2026-05-06 15:46 32.83982 -97.05504 1375 ft 131 kts
2026-05-06 15:46 32.84901 -97.05498 1199 ft 133 kts
2026-05-06 15:47 32.85820 -97.05492 1019 ft 133 kts 360°
2026-05-06 15:47 32.86757 -97.05492 839 ft 134 kts
2026-05-06 15:47 32.87699 -97.05487 708 ft 134 kts 360°
2026-05-06 15:47 32.88626 -97.05486 608 ft 135 kts
2026-05-06 15:48 32.89560 -97.05472 604 ft 133 kts
2026-05-06 15:48 32.90422 -97.05477 619 ft 111 kts
2026-05-06 15:48 32.91103 -97.05543 608 ft 88 kts 353°
2026-05-06 15:48 32.91656 -97.05428 597 ft 64 kts 30°
2026-05-06 15:49 32.91803 -97.05357 598 ft 0 kts 14°
2026-05-06 15:50 35.39472 -97.59802 1294 ft 0 kts